QPF
0.04 0.03 0.03 0.01 0.00 0.00 0.00 0.00 0.00 0.00 0.00 0.00 0.00 0.00 0.00 0.00 0.00 0.00 0.00 0.00 0.00 0.00 0.00 0.00 0.00 0.00 0.00 0.00 0.00 0.00 0.00 0.00 0.00 0.00 0.00 0.00 0.00 0.00 0.00 0.00 0.00 0.00 0.00 0.00
0.06 0.03 0.01 0.01 0.01 0.00 0.00 0.00 0.00 0.00 0.00 0.00 0.00 0.00 0.00 0.00 0.00 0.00 0.00 0.00 0.00 0.00 0.00 0.00 0.00 0.00 0.00 0.00 0.00 0.00 0.00 0.00 0.00 0.00 0.00 0.00 0.00 0.00 0.00 0.00 0.00 0.00 0.00 0.00
0.05 0.02 0.01 0.01 0.01 0.01 0.01 0.00 0.00 0.00 0.00 0.00 0.00 0.00 0.00 0.00 0.00 0.00 0.00 0.00 0.00 0.00 0.00 0.00 0.00 0.00 0.00 0.00 0.00 0.00 0.00 0.00 0.00 0.00 0.00 0.00 0.00 0.00 0.00 0.00 0.00 0.00 0.00 0.00
0.03 0.01 0.01 0.01 0.01 0.01 0.01 0.00 0.00 0.00 0.00 0.00 0.00 0.00 0.00 0.00 0.00 0.00 0.00 0.00 0.00 0.00 0.00 0.00 0.00 0.00 0.00 0.00 0.00 0.00 0.00 0.00 0.00 0.00 0.00 0.00 0.00 0.00 0.00 0.00 0.00 0.01 0.01 0.01
0.04 0.01 0.01 0.02 0.01 0.01 0.01 0.01 0.00 0.01 0.01 0.01 0.00 0.00 0.00 0.00 0.00 0.00 0.00 0.00 0.00 0.00 0.00 0.00 0.00 0.00 0.00 0.00 0.00 0.00 0.00 0.00 0.00 0.00 0.00 0.00 0.00 0.00 0.00 0.00 0.00 0.00 0.01 0.01
0.04 0.02 0.01 0.01 0.01 0.01 0.01 0.02 0.03 0.03 0.03 0.03 0.01 0.00 0.00 0.00 0.00 0.00 0.00 0.00 0.00 0.00 0.00 0.00 0.00 0.00 0.00 0.00 0.00 0.00 0.00 0.00 0.00 0.00 0.00 0.00 0.00 0.00 0.00 0.00 0.00 0.01 0.01 0.01
0.07 0.03 0.02 0.01 0.02 0.03 0.04 0.07 0.11 0.11 0.09 0.04 0.00 0.00 0.00 0.00 0.00 0.00 0.00 0.00 0.00 0.00 0.00 0.00 0.00 0.00 0.00 0.00 0.00 0.00 0.00 0.00 0.00 0.00 0.00 0.00 0.00 0.00 0.00 0.00 0.01 0.00 0.00 0.01
0.08 0.05 0.02 0.02 0.02 0.03 0.05 0.05 0.07 0.06 0.03 0.01 0.00 0.00 0.00 0.00 0.00 0.00 0.00 0.00 0.00 0.00 0.00 0.00 0.00 0.00 0.00 0.00 0.00 0.00 0.00 0.00 0.00 0.00 0.00 0.00 0.00 0.00 0.00 0.00 0.00 0.00 0.00 0.00
0.08 0.03 0.01 0.00 0.01 0.01 0.03 0.04 0.02 0.02 0.01 0.00 0.00 0.00 0.00 0.00 0.00 0.00 0.00 0.00 0.00 0.00 0.00 0.00 0.00 0.00 0.00 0.00 0.00 0.00 0.00 0.00 0.00 0.00 0.00 0.00 0.00 0.00 0.00 0.00 0.00 0.00 0.00 0.00
0.11 0.06 0.01 0.00 0.01 0.02 0.02 0.04 0.04 0.05 0.04 0.01 0.00 0.00 0.00 0.00 0.00 0.00 0.00 0.00 0.00 0.00 0.00 0.00 0.00 0.00 0.00 0.00 0.00 0.00 0.00 0.00 0.00 0.00 0.00 0.00 0.00 0.00 0.00 0.00 0.00 0.00 0.00 0.00
0.12 0.10 0.05 0.02 0.02 0.02 0.03 0.05 0.08 0.09 0.04 0.01 0.00 0.00 0.00 0.00 0.00 0.00 0.00 0.00 0.00 0.00 0.00 0.00 0.00 0.00 0.00 0.00 0.00 0.00 0.00 0.00 0.00 0.00 0.00 0.00 0.00 0.00 0.00 0.00 0.00 0.00 0.00 0.00
0.15 0.14 0.08 0.04 0.01 0.01 0.02 0.03 0.05 0.07 0.05 0.01 0.00 0.00 0.00 0.00 0.00 0.00 0.00 0.00 0.00 0.00 0.00 0.00 0.00 0.00 0.00 0.00 0.00 0.00 0.00 0.00 0.00 0.00 0.00 0.00 0.00 0.00 0.00 0.00 0.00 0.00 0.00 0.00
0.20 0.23 0.18 0.10 0.06 0.04 0.04 0.03 0.03 0.03 0.03 0.01 0.00 0.00 0.00 0.00 0.00 0.00 0.00 0.00 0.00 0.00 0.00 0.00 0.00 0.00 0.00 0.00 0.00 0.00 0.00 0.00 0.00 0.00 0.00 0.00 0.00 0.00 0.00 0.00 0.00 0.00 0.00 0.01
0.18 0.22 0.19 0.14 0.09 0.06 0.05 0.04 0.03 0.03 0.04 0.02 0.00 0.00 0.00 0.00 0.00 0.00 0.00 0.00 0.00 0.00 0.00 0.00 0.00 0.00 0.00 0.00 0.00 0.00 0.00 0.00 0.00 0.00 0.00 0.00 0.00 0.00 0.00 0.00 0.00 0.00 0.00 0.00
0.21 0.21 0.10 0.05 0.04 0.04 0.03 0.02 0.02 0.02 0.02 0.01 0.00 0.00 0.00 0.00 0.00 0.00 0.00 0.00 0.00 0.00 0.00 0.00 0.00 0.00 0.00 0.00 0.00 0.00 0.00 0.00 0.00 0.00 0.00 0.00 0.00 0.00 0.00 0.00 0.00 0.00 0.00 0.00
0.22 0.20 0.11 0.04 0.02 0.03 0.04 0.02 0.01 0.02 0.01 0.00 0.00 0.00 0.00 0.00 0.00 0.00 0.00 0.00 0.00 0.00 0.00 0.00 0.00 0.00 0.00 0.00 0.00 0.00 0.00 0.00 0.00 0.00 0.00 0.00 0.00 0.00 0.00 0.00 0.00 0.00 0.00 0.00
0.20 0.19 0.15 0.08 0.03 0.05 0.06 0.02 0.01 0.01 0.01 0.00 0.00 0.00 0.00 0.00 0.00 0.00 0.00 0.00 0.00 0.00 0.00 0.00 0.00 0.00 0.00 0.00 0.00 0.00 0.00 0.00 0.00 0.00 0.00 0.00 0.00 0.00 0.00 0.00 0.00 0.00 0.00 0.00
0.12 0.14 0.15 0.10 0.09 0.14 0.05 0.01 0.01 0.01 0.01 0.00 0.00 0.00 0.00 0.00 0.00 0.00 0.00 0.00 0.00 0.00 0.00 0.00 0.00 0.00 0.00 0.00 0.00 0.00 0.00 0.00 0.00 0.00 0.00 0.00 0.00 0.00 0.00 0.00 0.00 0.00 0.00 0.00
0.06 0.10 0.14 0.12 0.12 0.08 0.02 0.00 0.00 0.01 0.01 0.01 0.00 0.00 0.00 0.00 0.00 0.00 0.00 0.00 0.00 0.00 0.00 0.00 0.00 0.00 0.00 0.00 0.00 0.00 0.00 0.00 0.00 0.00 0.00 0.00 0.00 0.00 0.00 0.00 0.00 0.00 0.00 0.00
0.06 0.10 0.16 0.13 0.11 0.05 0.01 0.01 0.00 0.01 0.01 0.01 0.01 0.00 0.00 0.00 0.00 0.00 0.00 0.00 0.00 0.00 0.00 0.00 0.00 0.00 0.00 0.00 0.00 0.00 0.00 0.00 0.00 0.00 0.00 0.00 0.00 0.00 0.00 0.00 0.00 0.00 0.00 0.00
0.12 0.15 0.18 0.13 0.09 0.03 0.01 0.01 0.01 0.02 0.02 0.01 0.00 0.00 0.00 0.00 0.00 0.00 0.00 0.00 0.00 0.00 0.00 0.00 0.00 0.00 0.00 0.00 0.00 0.00 0.00 0.00 0.00 0.00 0.00 0.00 0.00 0.00 0.00 0.00 0.00 0.00 0.00 0.00
0.11 0.12 0.11 0.10 0.08 0.03 0.01 0.02 0.03 0.03 0.01 0.00 0.00 0.00 0.00 0.00 0.00 0.00 0.00 0.00 0.00 0.00 0.00 0.00 0.00 0.00 0.00 0.00 0.00 0.00 0.00 0.00 0.00 0.00 0.00 0.00 0.00 0.00 0.00 0.00 0.00 0.00 0.00 0.00
0.06 0.07 0.08 0.06 0.04 0.02 0.02 0.02 0.03 0.02 0.01 0.00 0.00 0.00 0.00 0.00 0.00 0.00 0.00 0.00 0.00 0.00 0.00 0.00 0.00 0.00 0.00 0.00 0.00 0.00 0.00 0.00 0.00 0.00 0.00 0.00 0.00 0.00 0.00 0.00 0.00 0.00 0.00 0.00
0.05 0.04 0.05 0.03 0.01 0.01 0.02 0.03 0.02 0.01 0.01 0.00 0.00 0.00 0.00 0.00 0.00 0.00 0.00 0.00 0.00 0.00 0.00 0.00 0.00 0.00 0.00 0.00 0.00 0.00 0.00 0.00 0.00 0.00 0.00 0.00 0.00 0.00 0.00 0.00 0.00 0.00 0.00 0.00
0.06 0.05 0.04 0.02 0.01 0.01 0.01 0.02 0.01 0.01 0.00 0.00 0.00 0.00 0.00 0.00 0.00 0.00 0.00 0.00 0.00 0.00 0.00 0.00 0.00 0.00 0.00 0.00 0.00 0.00 0.00 0.00 0.00 0.00 0.00 0.00 0.00 0.00 0.00 0.00 0.00 0.00 0.00 0.00
0.05 0.05 0.04 0.03 0.02 0.01 0.01 0.01 0.00 0.00 0.00 0.00 0.00 0.00 0.00 0.00 0.00 0.00 0.00 0.00 0.00 0.00 0.00 0.00 0.00 0.00 0.00 0.00 0.00 0.00 0.00 0.00 0.00 0.00 0.00 0.00 0.00 0.00 0.00 0.00 0.00 0.00 0.00 0.00
MSLP
1007.99 1008.43 1008.83 1009.17 1009.46 1009.69 1009.90 1010.07 1010.21 1010.31 1010.34 1010.29 1010.16 1009.94 1009.64 1009.30 1008.96 1008.64 1008.38 1008.19 1008.08 1008.04 1008.07 1008.15 1008.28 1008.46 1008.72 1009.06 1009.51 1010.08 1010.78 1011.56 1012.42 1013.30 1014.16 1014.95 1015.65 1016.24 1016.73 1017.14 1017.51 1017.86 1018.22 1018.61
1007.18 1007.57 1007.95 1008.30 1008.64 1008.98 1009.31 1009.63 1009.90 1010.11 1010.21 1010.17 1010.00 1009.69 1009.28 1008.82 1008.36 1007.96 1007.65 1007.44 1007.34 1007.33 1007.38 1007.47 1007.59 1007.74 1007.94 1008.23 1008.62 1009.16 1009.84 1010.66 1011.57 1012.53 1013.48 1014.36 1015.14 1015.78 1016.31 1016.74 1017.10 1017.45 1017.81 1018.22
1006.15 1006.53 1006.92 1007.34 1007.79 1008.27 1008.77 1009.27 1009.70 1010.01 1010.16 1010.11 1009.85 1009.41 1008.85 1008.22 1007.62 1007.11 1006.73 1006.51 1006.43 1006.47 1006.57 1006.71 1006.86 1007.01 1007.19 1007.43 1007.79 1008.29 1008.96 1009.79 1010.74 1011.75 1012.77 1013.73 1014.57 1015.28 1015.84 1016.28 1016.66 1017.01 1017.39 1017.81
1004.99 1005.36 1005.79 1006.30 1006.90 1007.57 1008.29 1008.99 1009.60 1010.03 1010.22 1010.13 1009.77 1009.17 1008.40 1007.58 1006.80 1006.16 1005.70 1005.46 1005.41 1005.51 1005.70 1005.92 1006.13 1006.32 1006.51 1006.75 1007.08 1007.55 1008.19 1009.01 1009.97 1011.01 1012.06 1013.07 1013.96 1014.70 1015.30 1015.77 1016.16 1016.53 1016.92 1017.35
1003.78 1004.12 1004.59 1005.21 1005.97 1006.86 1007.81 1008.74 1009.53 1010.09 1010.32 1010.20 1009.72 1008.94 1007.97 1006.94 1005.97 1005.18 1004.64 1004.37 1004.35 1004.53 1004.82 1005.15 1005.46 1005.74 1005.98 1006.23 1006.55 1006.99 1007.59 1008.37 1009.29 1010.32 1011.37 1012.38 1013.30 1014.07 1014.69 1015.19 1015.61 1015.99 1016.40 1016.86
1002.62 1002.90 1003.39 1004.09 1005.00 1006.09 1007.26 1008.41 1009.38 1010.06 1010.35 1010.20 1009.62 1008.70 1007.54 1006.30 1005.15 1004.23 1003.60 1003.31 1003.33 1003.59 1004.00 1004.47 1004.91 1005.29 1005.61 1005.90 1006.22 1006.62 1007.18 1007.88 1008.74 1009.70 1010.71 1011.70 1012.60 1013.38 1014.02 1014.55 1015.00 1015.42 1015.86 1016.34
1001.63 1001.81 1002.24 1002.97 1003.98 1005.21 1006.56 1007.89 1009.02 1009.82 1010.17 1010.02 1009.38 1008.34 1007.04 1005.66 1004.37 1003.33 1002.64 1002.34 1002.40 1002.75 1003.29 1003.90 1004.48 1004.98 1005.40 1005.74 1006.07 1006.45 1006.93 1007.55 1008.31 1009.18 1010.11 1011.04 1011.90 1012.68 1013.33 1013.89 1014.38 1014.84 1015.32 1015.84
1000.90 1000.91 1001.24 1001.91 1002.93 1004.22 1005.66 1007.10 1008.34 1009.24 1009.65 1009.52 1008.88 1007.79 1006.42 1004.96 1003.60 1002.50 1001.78 1001.49 1001.60 1002.04 1002.70 1003.44 1004.16 1004.79 1005.30 1005.71 1006.05 1006.40 1006.82 1007.35 1008.00 1008.75 1009.58 1010.43 1011.25 1012.00 1012.66 1013.25 1013.78 1014.29 1014.81 1015.36
1000.52 1000.31 1000.44 1000.98 1001.90 1003.14 1004.57 1006.03 1007.32 1008.27 1008.73 1008.66 1008.05 1006.99 1005.64 1004.18 1002.82 1001.73 1001.03 1000.78 1000.94 1001.46 1002.21 1003.07 1003.91 1004.66 1005.26 1005.73 1006.10 1006.44 1006.80 1007.23 1007.77 1008.42 1009.14 1009.90 1010.67 1011.39 1012.06 1012.67 1013.24 1013.79 1014.34 1014.93
1000.50 1000.04 999.93 1000.25 1000.97 1002.06 1003.37 1004.75 1006.00 1006.94 1007.44 1007.43 1006.90 1005.94 1004.69 1003.32 1002.04 1001.03 1000.39 1000.18 1000.41 1000.98 1001.81 1002.75 1003.68 1004.52 1005.21 1005.74 1006.15 1006.48 1006.80 1007.17 1007.62 1008.17 1008.79 1009.48 1010.19 1010.89 1011.56 1012.19 1012.78 1013.36 1013.94 1014.53
1000.81 1000.11 999.74 999.79 1000.25 1001.08 1002.17 1003.37 1004.50 1005.38 1005.88 1005.93 1005.51 1004.70 1003.61 1002.41 1001.28 1000.39 999.85 999.72 999.99 1000.60 1001.46 1002.45 1003.43 1004.33 1005.08 1005.66 1006.11 1006.46 1006.78 1007.11 1007.51 1007.99 1008.54 1009.17 1009.83 1010.50 1011.16 1011.80 1012.41 1012.99 1013.57 1014.15
1001.36 1000.45 999.85 999.61 999.77 1000.29 1001.10 1002.05 1002.98 1003.74 1004.21 1004.30 1004.01 1003.37 1002.48 1001.50 1000.57 999.84 999.42 999.36 999.67 1000.29 1001.15 1002.13 1003.12 1004.04 1004.83 1005.47 1005.97 1006.36 1006.69 1007.03 1007.40 1007.85 1008.36 1008.94 1009.57 1010.22 1010.87 1011.49 1012.10 1012.67 1013.23 1013.78
1001.99 1000.96 1000.15 999.66 999.53 999.73 1000.21 1000.86 1001.56 1002.17 1002.57 1002.69 1002.51 1002.05 1001.39 1000.64 999.93 999.38 999.09 999.10 999.42 1000.03 1000.84 1001.78 1002.74 1003.66 1004.46 1005.14 1005.69 1006.13 1006.52 1006.88 1007.27 1007.71 1008.22 1008.78 1009.38 1010.01 1010.63 1011.24 1011.82 1012.37 1012.89 1013.40
1002.55 1001.45 1000.52 999.83 999.44 999.34 999.50 999.85 1000.30 1000.72 1001.04 1001.17 1001.09 1000.81 1000.37 999.86 999.37 999.01 998.83 998.90 999.23 999.79 1000.54 1001.40 1002.31 1003.18 1003.99 1004.69 1005.29 1005.80 1006.25 1006.67 1007.10 1007.57 1008.07 1008.63 1009.22 1009.83 1010.43 1011.02 1011.57 1012.09 1012.57 1013.02
1002.88 1001.77 1000.77 999.95 999.35 999.00 998.88 998.96 999.16 999.41 999.62 999.76 999.76 999.64 999.41 999.13 998.86 998.66 998.61 998.73 999.05 999.56 1000.22 1000.99 1001.82 1002.64 1003.43 1004.15 1004.79 1005.37 1005.89 1006.38 1006.87 1007.38 1007.91 1008.47 1009.06 1009.65 1010.24 1010.81 1011.34 1011.83 1012.28 1012.69
1002.84 1001.78 1000.76 999.85 999.11 998.56 998.22 998.06 998.05 998.14 998.27 998.40 998.48 998.50 998.46 998.38 998.31 998.28 998.34 998.52 998.83 999.29 999.87 1000.55 1001.30 1002.06 1002.83 1003.56 1004.24 1004.88 1005.47 1006.03 1006.59 1007.14 1007.71 1008.29 1008.88 1009.47 1010.06 1010.62 1011.14 1011.62 1012.05 1012.44
1002.42 1001.39 1000.37 999.42 998.58 997.90 997.38 997.04 996.87 996.83 996.89 997.01 997.15 997.30 997.43 997.54 997.65 997.78 997.96 998.20 998.52 998.95 999.47 1000.08 1000.75 1001.47 1002.21 1002.95 1003.67 1004.36 1005.02 1005.66 1006.27 1006.88 1007.48 1008.09 1008.70 1009.30 1009.89 1010.46 1010.99 1011.47 1011.91 1012.31
1001.66 1000.64 999.61 998.62 997.72 996.92 996.28 995.81 995.51 995.37 995.38 995.50 995.71 995.96 996.24 996.52 996.81 997.09 997.38 997.71 998.07 998.50 999.00 999.57 1000.21 1000.90 1001.63 1002.38 1003.13 1003.87 1004.59 1005.28 1005.96 1006.61 1007.26 1007.90 1008.53 1009.15 1009.77 1010.36 1010.91 1011.43 1011.90 1012.32
1000.70 999.64 998.58 997.54 996.56 995.69 994.95 994.37 993.98 993.77 993.73 993.86 994.11 994.45 994.86 995.30 995.74 996.18 996.60 997.03 997.47 997.94 998.46 999.03 999.67 1000.36 1001.10 1001.87 1002.65 1003.44 1004.21 1004.96 1005.69 1006.39 1007.07 1007.75 1008.41 1009.07 1009.72 1010.34 1010.94 1011.50 1012.01 1012.48
999.74 998.59 997.45 996.33 995.28 994.32 993.49 992.83 992.35 992.08 992.01 992.13 992.41 992.83 993.34 993.90 994.49 995.07 995.64 996.19 996.74 997.29 997.87 998.49 999.16 999.87 1000.64 1001.44 1002.27 1003.10 1003.92 1004.71 1005.49 1006.24 1006.97 1007.68 1008.38 1009.08 1009.76 1010.43 1011.07 1011.67 1012.23 1012.73
998.95 997.67 996.42 995.20 994.06 993.01 992.09 991.35 990.80 990.46 990.34 990.44 990.73 991.19 991.77 992.43 993.14 993.86 994.57 995.26 995.93 996.59 997.27 997.96 998.69 999.46 1000.28 1001.12 1001.99 1002.86 1003.73 1004.57 1005.39 1006.19 1006.96 1007.72 1008.46 1009.19 1009.91 1010.61 1011.28 1011.92 1012.50 1013.03
998.43 997.02 995.64 994.31 993.07 991.93 990.93 990.10 989.47 989.06 988.88 988.94 989.21 989.68 990.29 991.02 991.82 992.66 993.49 994.32 995.12 995.91 996.70 997.49 998.30 999.14 1000.01 1000.90 1001.81 1002.73 1003.64 1004.53 1005.40 1006.24 1007.06 1007.85 1008.63 1009.39 1010.14 1010.86 1011.55 1012.20 1012.79 1013.33
998.18 996.65 995.16 993.74 992.40 991.18 990.10 989.20 988.50 988.02 987.77 987.77 988.00 988.44 989.06 989.82 990.68 991.59 992.54 993.48 994.40 995.31 996.21 997.10 998.00 998.91 999.84 1000.78 1001.74 1002.69 1003.64 1004.58 1005.49 1006.38 1007.24 1008.07 1008.88 1009.67 1010.43 1011.16 1011.85 1012.49 1013.07 1013.58
998.09 996.48 994.92 993.44 992.05 990.78 989.65 988.69 987.93 987.38 987.07 987.00 987.17 987.57 988.16 988.92 989.81 990.78 991.79 992.83 993.85 994.87 995.86 996.84 997.81 998.78 999.76 1000.75 1001.74 1002.73 1003.71 1004.69 1005.64 1006.57 1007.47 1008.35 1009.19 1010.00 1010.76 1011.49 1012.16 1012.77 1013.32 1013.80
997.95 996.32 994.75 993.26 991.87 990.60 989.47 988.50 987.71 987.12 986.76 986.64 986.75 987.10 987.65 988.39 989.28 990.27 991.34 992.43 993.53 994.61 995.68 996.72 997.75 998.76 999.78 1000.79 1001.80 1002.82 1003.83 1004.83 1005.83 1006.80 1007.74 1008.65 1009.52 1010.34 1011.11 1011.82 1012.46 1013.04 1013.55 1013.98
997.51 995.94 994.43 993.00 991.68 990.47 989.39 988.46 987.70 987.13 986.75 986.60 986.68 986.99 987.51 988.23 989.10 990.10 991.18 992.31 993.44 994.58 995.68 996.76 997.82 998.85 999.87 1000.89 1001.91 1002.94 1003.97 1005.00 1006.03 1007.03 1008.01 1008.95 1009.85 1010.68 1011.45 1012.14 1012.77 1013.31 1013.78 1014.17
Thickness
5586 5587 5598 5613 5620 5625 5626 5628 5633 5645 5657 5654 5655 5665 5680 5688 5689 5694 5699 5703 5709 5717 5725 5727 5727 5726 5723 5720 5717 5714 5709 5705 5699 5692 5686 5680 5675 5670 5665 5660 5655 5650 5644 5638
5571 5583 5606 5611 5612 5615 5617 5619 5625 5636 5647 5647 5647 5656 5673 5682 5687 5695 5701 5705 5711 5716 5720 5722 5723 5722 5721 5720 5718 5714 5710 5705 5700 5696 5690 5684 5677 5670 5665 5658 5652 5647 5642 5636
5573 5592 5601 5600 5601 5604 5609 5613 5619 5625 5634 5638 5639 5645 5663 5679 5686 5694 5701 5707 5712 5716 5719 5721 5721 5721 5720 5719 5718 5716 5711 5706 5701 5696 5687 5679 5671 5664 5658 5654 5649 5645 5640 5634
5568 5583 5589 5591 5596 5601 5605 5617 5617 5617 5615 5613 5623 5619 5650 5668 5678 5688 5697 5703 5709 5714 5718 5719 5719 5719 5719 5720 5718 5715 5711 5706 5700 5693 5686 5679 5674 5668 5663 5657 5650 5643 5638 5632
5563 5576 5580 5586 5598 5601 5605 5613 5609 5608 5603 5600 5608 5607 5638 5659 5669 5685 5696 5703 5709 5713 5715 5716 5718 5719 5719 5717 5715 5712 5708 5703 5698 5692 5687 5680 5674 5669 5661 5653 5646 5640 5635 5629
5559 5571 5578 5588 5596 5598 5598 5595 5591 5587 5584 5585 5605 5600 5625 5651 5672 5686 5697 5702 5706 5709 5710 5712 5714 5714 5713 5711 5709 5707 5704 5700 5695 5690 5684 5679 5673 5665 5657 5650 5643 5637 5631 5626
5546 5557 5571 5581 5579 5583 5586 5579 5572 5571 5571 5585 5603 5601 5630 5662 5678 5687 5694 5699 5703 5704 5705 5706 5707 5708 5707 5705 5704 5702 5699 5695 5691 5686 5681 5677 5670 5663 5657 5650 5643 5636 5629 5623
5536 5548 5563 5574 5578 5579 5582 5581 5575 5574 5576 5584 5591 5600 5636 5664 5677 5684 5688 5692 5696 5698 5698 5701 5703 5703 5702 5701 5699 5697 5695 5692 5687 5683 5678 5673 5666 5660 5654 5648 5642 5636 5630 5624
5530 5545 5563 5571 5580 5581 5574 5575 5584 5576 5574 5577 5583 5604 5630 5656 5667 5675 5680 5684 5688 5692 5694 5696 5697 5697 5696 5695 5693 5693 5690 5687 5683 5679 5674 5668 5662 5657 5651 5645 5639 5634 5628 5621
5523 5529 5548 5562 5569 5574 5578 5577 5571 5567 5566 5571 5584 5597 5624 5651 5664 5672 5676 5680 5685 5687 5688 5690 5690 5690 5689 5688 5687 5685 5684 5682 5679 5674 5669 5664 5659 5653 5647 5641 5635 5630 5624 5617
5513 5520 5532 5546 5557 5563 5565 5566 5569 5568 5568 5573 5579 5606 5641 5656 5667 5671 5676 5680 5681 5681 5682 5683 5683 5683 5682 5680 5678 5677 5676 5674 5671 5668 5663 5658 5654 5648 5642 5637 5632 5626 5619 5613
5502 5510 5518 5536 5557 5567 5568 5569 5567 5568 5567 5573 5580 5609 5648 5653 5662 5666 5670 5673 5675 5676 5676 5675 5675 5673 5672 5671 5670 5669 5668 5667 5665 5661 5657 5652 5648 5642 5637 5632 5627 5621 5615 5609
5485 5496 5506 5522 5535 5545 5552 5559 5566 5568 5563 5562 5575 5607 5641 5647 5653 5658 5663 5666 5666 5668 5667 5666 5665 5665 5665 5665 5663 5662 5661 5660 5657 5654 5650 5646 5641 5637 5632 5627 5621 5615 5610 5604
5476 5483 5498 5514 5531 5533 5540 5551 5560 5560 5561 5564 5580 5609 5630 5640 5647 5653 5656 5658 5659 5660 5660 5659 5658 5658 5658 5657 5656 5655 5654 5652 5650 5647 5644 5640 5636 5632 5627 5621 5615 5610 5604 5598
5461 5470 5486 5503 5519 5528 5536 5546 5552 5561 5574 5577 5594 5605 5623 5633 5640 5646 5649 5650 5651 5652 5653 5653 5653 5652 5651 5649 5648 5648 5646 5645 5643 5640 5637 5634 5629 5624 5619 5614 5609 5603 5597 5592
5450 5461 5474 5493 5512 5522 5529 5543 5552 5562 5574 5582 5592 5605 5625 5629 5631 5635 5638 5642 5645 5647 5648 5648 5648 5647 5646 5645 5644 5642 5640 5637 5635 5633 5630 5625 5621 5616 5611 5606 5601 5595 5590 5584
5443 5452 5462 5479 5496 5508 5522 5549 5557 5565 5578 5587 5595 5619 5618 5620 5625 5631 5633 5635 5640 5644 5645 5645 5645 5645 5644 5642 5640 5637 5634 5630 5628 5625 5621 5617 5613 5609 5604 5598 5593 5587 5582 5576
5439 5446 5454 5465 5483 5496 5539 5558 5563 5568 5581 5590 5601 5611 5614 5620 5625 5629 5632 5633 5636 5639 5640 5641 5640 5639 5638 5636 5633 5630 5626 5623 5620 5617 5613 5609 5605 5600 5595 5590 5585 5579 5573 5568
5442 5444 5448 5460 5476 5499 5531 5549 5559 5564 5579 5592 5597 5604 5607 5608 5612 5619 5627 5630 5635 5637 5638 5639 5638 5635 5632 5629 5626 5622 5618 5615 5612 5609 5606 5602 5598 5593 5587 5582 5576 5570 5565 5559
5442 5444 5445 5455 5472 5497 5539 5551 5558 5560 5569 5592 5594 5597 5597 5594 5595 5624 5630 5626 5628 5631 5632 5632 5630 5626 5623 5621 5618 5615 5611 5607 5605 5602 5599 5594 5590 5585 5580 5574 5567 5561 5556 5550
5435 5436 5442 5452 5467 5497 5532 5544 5550 5548 5572 5589 5592 5595 5594 5597 5614 5627 5622 5622 5624 5625 5625 5624 5621 5619 5617 5614 5611 5608 5604 5601 5598 5594 5589 5584 5580 5576 5570 5564 5557 5552 5546 5539
5436 5441 5446 5453 5464 5496 5530 5534 5544 5556 5571 5581 5586 5590 5594 5602 5610 5611 5612 5614 5615 5615 5614 5614 5612 5609 5607 5606 5604 5601 5597 5593 5588 5584 5579 5574 5569 5565 5559 5553 5546 5541 5535 5528
5436 5448 5456 5467 5490 5514 5521 5530 5544 5550 5559 5569 5575 5582 5589 5593 5598 5602 5605 5606 5607 5607 5606 5605 5604 5600 5596 5596 5598 5595 5588 5583 5578 5573 5568 5563 5558 5553 5548 5543 5536 5530 5524 5518
5431 5444 5449 5461 5484 5502 5514 5524 5535 5544 5552 5561 5569 5575 5581 5586 5591 5594 5597 5598 5598 5598 5597 5596 5594 5591 5587 5586 5587 5585 5579 5574 5570 5563 5557 5552 5546 5541 5536 5532 5527 5521 5514 5508
5426 5435 5444 5457 5478 5492 5509 5520 5529 5537 5545 5553 5561 5568 5575 5580 5584 5587 5589 5590 5591 5589 5588 5588 5588 5585 5580 5577 5575 5572 5569 5565 5559 5552 5546 5541 5536 5530 5524 5519 5514 5510 5505 5500
5426 5433 5443 5461 5478 5486 5504 5517 5522 5530 5539 5546 5552 5560 5568 5574 5578 5581 5581 5582 5581 5580 5578 5577 5576 5574 5570 5567 5564 5561 5559 5556 5551 5542 5535 5530 5524 5519 5513 5507 5501 5497 5493 5489